This is the latest recevied weather packets stored in our database for station/object W8AN. If no packets are shown the sender has not sent any weather packets the latest 10 day(s).
| Time | Temp. | Humidity | Pressure | Rain* | Wind** | Luminosity | Snow |
|---|---|---|---|---|---|---|---|
| 1777625275 | 5° C | 84% | 4268.2 hPa | 1.27 mm | - | 0 W/m² | - |
| 1777624973 | 5° C | 84% | 4268.3 hPa | 0 mm | - | 0 W/m² | - |
| 1777624669 | 5° C | 84% | 4268.2 hPa | 1.78 mm | - | 0 W/m² | - |
| 1777624364 | 5° C | 83% | 4268.1 hPa | 3.05 mm | - | 0 W/m² | - |
| 1777624061 | 5° C | 83% | 4268 hPa | 1.27 mm | - | 0 W/m² | - |
| 1777623758 | 5° C | 83% | 4268.1 hPa | 0 mm | - | 0 W/m² | - |
| 1777623455 | 5.56° C | 83% | 4268.2 hPa | 0 mm | - | 0 W/m² | - |
| 1777623153 | 5.56° C | 83% | 4268.4 hPa | 0 mm | - | 0 W/m² | - |
| 1777622850 | 5.56° C | 83% | 4268.4 hPa | 0 mm | - | 0 W/m² | - |
| 1777622546 | 5.56° C | 83% | 4268.4 hPa | 0 mm | - | 0 W/m² | - |
| 1777622243 | 5.56° C | 83% | 4268.5 hPa | 0 mm | - | 0 W/m² | - |
| 1777621940 | 5.56° C | 83% | 4268.3 hPa | 0 mm | - | 0 W/m² | - |
| 1777621635 | 5.56° C | 82% | 4268.4 hPa | 1.78 mm | - | 0 W/m² | - |
| 1777621332 | 5.56° C | 82% | 4268.6 hPa | 1.78 mm | - | 0 W/m² | - |
| 1777621027 | 5.56° C | 82% | 4268.5 hPa | 1.27 mm | - | 0 W/m² | - |
| 1777620723 | 5.56° C | 82% | 4268.5 hPa | 1.27 mm | - | 0 W/m² | - |
| 1777620419 | 5.56° C | 82% | 4268.6 hPa | 1.78 mm | - | 0 W/m² | - |
| 1777620116 | 5.56° C | 82% | 4268.5 hPa | 1.78 mm | - | 0 W/m² | - |
| 1777619813 | 5.56° C | 82% | 4268.7 hPa | 0 mm | - | 0 W/m² | - |
| 1777619508 | 5.56° C | 81% | 4268.7 hPa | 0 mm | - | 0 W/m² | - |
| 1777619203 | 5.56° C | 81% | 4268.7 hPa | 1.78 mm | - | 0 W/m² | - |
| 1777618898 | 5.56° C | 80% | 4268.9 hPa | 1.78 mm | - | 0 W/m² | - |
| 1777618598 | 6.11° C | 80% | 4268.7 hPa | 1.78 mm | - | 0 W/m² | - |
| 1777618294 | 6.11° C | 79% | 4268.9 hPa | 0 mm | - | 0 W/m² | - |
| 1777617991 | 6.11° C | 79% | 4269 hPa | 1.27 mm | - | 0 W/m² | - |
* Rain latest hour (hover to see other rain measurements)
** Current wind speed in m/s (hover to see current wind gust speed)